FW6325 Weather Reports


time (UTC)temp
F
wind
direction
speed
knots
gust
knots
rain 1hr
in
rain 24hr
in
rain mn
in
humidity
%
barometer
mb
20260508193041 46 63 1.7 6.1 0.00 0.69 0.00 86 1001.3
20260508191540 46 66 1.7 7.8 0.00 0.69 0.00 82 1001.3
20260508190049 47 62 1.7 7.8 0.00 0.69 0.00 83 1001.2
20260508184539 47 53 4.3 9.6 0.00 1.05 0.00 84 1001.1
20260508183039 47 69 2.6 5.2 0.00 1.05 0.00 83 1001.2
20260508181604 48 116 1.7 6.1 0.00 1.05 0.00 83 1001.4
20260508180038 48 43 1.7 6.1 0.00 1.05 0.00 83 1001.3
20260508174538 48 47 3.5 7.0 0.00 1.06 0.00 83 1001.2
20260508173035 48 47 2.6 7.0 0.00 1.06 0.00 83 1001.3
20260508171538 47 70 2.6 5.2 0.00 1.06 0.00 84 1001.5
20260508170034 47 128 3.5 6.1 0.00 1.06 0.00 83 1001.5
20260508164538 47 8 1.7 7.0 0.00 1.06 0.00 85 1001.3
20260508163032 46 94 0.9 3.5 0.00 1.06 0.00 87 1001.4
20260508161535 47 122 1.7 3.5 0.00 1.06 0.00 86 1001.6
20260508160037 46 103 1.7 3.5 0.00 1.06 0.00 88 1001.3
20260508154530 46 98 0.9 5.2 0.00 1.06 0.00 87 1001.6
20260508153028 47 99 1.7 6.1 0.00 1.06 0.00 87 1001.3
20260508151528 47 99 0.9 3.5 0.00 1.06 0.00 87 1001.5
20260508150027 47 84 0.9 6.1 0.00 1.06 0.00 87 1001.8
20260508144527 47 101 2.6 6.1 0.00 1.06 0.00 87 1001.6
20260508143032 47 85 2.6 7.0 0.00 1.06 0.00 87 1001.9
20260508141543 47 119 1.7 4.3 0.00 1.06 0.00 87 1002.3
20260508140025 48 98 4.3 7.8 0.00 1.06 0.00 87 1002.2
20260508134525 48 99 0.9 3.5 0.00 1.06 0.00 86 1002.6
20260508133124 48 108 2.6 6.1 0.00 1.06 0.00 87 1002.7
20260508131524 48 101 3.5 6.1 0.00 1.06 0.00 86 1002.2
20260508130025 48 100 2.6 5.2 0.00 1.06 0.00 88 1001.9
20260508124522 47 105 3.5 6.1 0.00 1.06 0.00 86 1002.2
20260508123023 48 98 3.5 6.1 0.00 1.06 0.00 87 1001.9
20260508121521 48 105 4.3 7.0 0.00 1.06 0.00 87 1002.0
20260508120020 47 114 3.5 7.0 0.00 1.06 0.00 87 1002.2
20260508114519 47 82 1.7 5.2 0.00 1.07 0.00 90 1002.5
20260508113018 45 30 2.6 7.0 0.00 1.07 0.00 92 1002.0
20260508111517 44 7 1.7 5.2 0.00 1.07 0.00 94 1002.2
20260508110016 42 51 0.0 2.6 0.00 1.07 0.00 95 1002.4
20260508104516 41 51 0.0 0.9 0.00 1.12 0.00 95 1002.7
20260508103026 41 51 0.0 1.7 0.00 1.12 0.00 95 1002.7
20260508101518 41 358 0.0 0.9 0.00 1.12 0.00 95 1002.6
20260508100013 41 358 0.0 0.0 0.00 1.12 0.00 95 1002.4
20260508094511 41 358 0.0 1.7 0.00 1.13 0.00 95 1002.1
20260508093009 41 358 0.0 2.6 0.00 1.13 0.00 95 1001.9
20260508091509 41 358 0.0 1.7 0.00 1.13 0.00 95 1001.7
20260508090009 41 358 0.0 0.0 0.00 1.13 0.00 95 1002.0
20260508084507 41 358 0.0 1.7 0.00 1.17 0.00 95 1002.0
20260508083005 40 358 0.0 1.7 0.00 1.17 0.00 94 1001.8
20260508081503 40 114 0.0 0.9 0.00 1.17 0.00 94 1001.6
20260508080002 40 114 0.0 0.9 0.00 1.20 0.00 94 1001.6
20260508074502 40 114 0.0 1.7 0.00 1.20 0.00 94 1001.7
20260508073100 40 114 0.0 0.9 0.00 1.20 0.00 94 1001.6
20260508071558 40 114 0.0 2.6 0.00 1.20 0.00 94 1001.7
20260508070055 40 114 0.9 2.6 0.00 1.20 0.00 94 1001.8
20260508064557 41 114 0.0 2.6 0.00 1.20 0.00 93 1001.6
20260508063051 42 103 0.0 2.6 0.00 1.20 0.00 93 1001.6
20260508061554 43 48 0.9 3.5 0.00 1.20 0.00 93 1001.8
20260508060042 44 3 0.9 2.6 0.00 1.20 0.00 93 1001.7
20260508054540 45 25 0.9 3.5 0.00 1.20 0.00 93 1001.5
20260508053038 46 151 0.0 2.6 0.00 1.20 0.00 93 1001.6
20260508051535 47 281 0.9 7.0 0.00 1.20 0.00 93 1001.4
20260508050033 47 314 0.9 3.5 0.00 1.20 0.00 93 1001.5
20260508044531 48 358 0.0 1.7 0.00 1.20 0.00 93 1001.5
20260508043029 48 358 0.0 3.5 0.00 1.20 0.00 93 1001.4
20260508041526 48 22 0.0 2.6 0.00 1.20 0.00 92 1001.5
20260508040034 49 47 0.9 2.6 0.00 1.20 0.00 92 1001.6
20260508034528 50 83 0.0 2.6 0.00 1.20 0.00 92 1001.6
20260508033024 50 334 0.0 3.5 0.00 1.20 0.00 93 1001.6
20260508031526 50 358 0.9 4.3 0.00 1.20 0.00 94 1001.6
20260508030017 50 353 1.7 7.0 0.00 1.20 0.00 94 1001.7
20260508024516 50 3 1.7 7.0 0.00 1.20 1.20 95 1001.8
20260508023025 50 20 0.9 3.5 0.00 1.20 1.20 95 1001.6
20260508021517 49 255 1.7 4.3 0.00 1.20 1.20 95 1001.6
20260508020015 48 221 0.0 3.5 0.00 1.20 1.20 95 1001.6
20260508014532 49 51 0.9 2.6 0.00 1.20 1.20 94 1001.5
20260508013013 49 221 0.0 2.6 0.00 1.20 1.20 95 1001.3
20260508011511 49 194 1.7 4.3 0.00 1.20 1.20 94 1001.2
20260508010016 49 173 0.9 4.3 0.00 1.20 1.20 94 1001.5
20260508004514 49 161 0.9 3.5 0.00 1.20 1.20 94 1001.4
20260508003016 50 126 1.7 6.1 0.00 1.20 1.20 94 1001.5
20260508001503 50 176 0.9 3.5 0.00 1.20 1.20 94 1001.5
20260508000003 50 107 0.9 2.6 0.00 1.20 1.20 94 1001.7
20260507234502 51 139 1.7 3.5 0.00 1.20 1.20 94 1002.0
20260507233002 51 151 0.0 4.3 0.00 1.20 1.20 94 1001.6
20260507231603 51 103 0.9 2.6 0.00 1.20 1.20 94 1001.8
20260507230101 51 119 0.9 6.1 0.00 1.20 1.20 94 1001.7
20260507224616 51 173 2.6 7.8 0.00 1.20 1.20 94 1001.8
20260507223101 51 148 0.9 8.7 0.00 1.20 1.20 94 1002.0
20260507221556 52 98 0.9 2.6 0.00 1.20 1.20 94 1002.1
20260507220057 52 239 2.6 9.6 0.01 1.20 1.20 94 1002.2
20260507214555 52 293 2.6 7.0 0.02 1.20 1.20 94 1002.3
20260507213053 51 188 2.6 9.6 0.05 1.20 1.20 94 1002.1
20260507211611 51 313 0.9 5.2 0.13 1.20 1.20 94 1001.8
20260507210050 51 214 3.5 6.1 0.21 1.19 1.19 94 1001.6
20260507204544 51 151 3.5 8.7 0.31 1.17 1.17 94 1002.5
20260507203044 51 250 2.6 5.2 0.41 1.14 1.14 93 1002.6
20260507201540 51 200 2.6 7.8 0.44 1.06 1.06 93 1003.2
20260507200038 52 148 0.9 7.8 0.46 0.98 0.98 93 1003.5
20260507194539 53 177 2.6 12.2 0.41 0.87 0.87 93 1004.0